Weather in Raykov

Russia / Republic of Khakassia     53°31′19″N   91°10′24″E
temp.,
°C
wind,
m/s
gust,
m/s
humid.,
%
clouds,
%
prec.,
mm/h
press.,
hPa
HPBL,
m
10 may, mon
mon1001:00+3nw11795 0.1 102011
04:00+2nw22735 0.0 102013
07:00+4nw24705 0.0 1022191
10:00+8n446294 0.1 10231240
13:00+9nne335566 0.1 10221297
16:00+10ene455491 0.0 10221272
19:00+10ene455333 0.0 10211375
22:00+7ene36725 0.0 102097
11 may, tue
tue1101:00+5ne34780 0.0 101868
04:00+4ne228496 0.0 101740
07:00+5ne3678100 0.0 1016326
10:00+9ne3456100 0.0 1015765
13:00+14e3439100 0.0 10141230
16:00+16e3433100 0.0 10121349
19:00+15nne3540100 0.0 1012181
22:00+11nne225095 0.0 101311
12 may, wed
wed1201:00+9n2252100 0.0 101318
04:00+8n2266100 0.0 101425
07:00+9nnw2667100 0.0 1014262
10:00+13nne5652100 0.0 10141002
13:00+16n6740100 0.0 10132174
16:00+16nne7834100 0.0 10132177
19:00+14n67335 0.0 10151392
22:00+10nne35465 0.0 101782
13 may, thu
thu1301:00+7w11550 0.0 101910
04:00+6nw11585 0.0 101910
07:00+8nnw11535 0.0 1020105
10:00+11ne23355 0.0 10201485
13:00+14nne33284 0.0 10192046
16:00+15ne33230 0.0 10182066
19:00+14e22250 0.0 10171640
22:00+10sse33410 0.0 101827
14 may, fri
fri1401:00+8sse22440 0.0 101710
04:00+6sse22515 0.0 101619
07:00+8s23506 0.0 1015154
10:00+14ssw463686 0.0 1012710
13:00+19sw6830100 0.0 10092529
16:00+16w101145100 0.0 10091928
19:00+12wsw8115986 0.5 1012912
22:00+7nw81366100 0.9 10191193